TimeEST,TemperatureF,Dew PointF,Humidity,Sea Level PressureIn,VisibilityMPH,Wind Direction,Wind SpeedMPH,Gust SpeedMPH,PrecipitationIn,Events,Conditions,WindDirDegrees,DateUTC
12:15 AM,50.0,44.6,82,29.89,10.0,NE,6.9,-,N/A,,Overcast,40,2013-12-04 05:15:00
12:35 AM,50.0,44.6,82,29.89,10.0,Calm,Calm,-,N/A,,Overcast,0,2013-12-04 05:35:00
12:55 AM,50.0,44.6,82,29.89,10.0,Calm,Calm,-,N/A,,Overcast,0,2013-12-04 05:55:00
1:15 AM,48.2,44.6,87,29.89,10.0,East,3.5,-,N/A,,Overcast,80,2013-12-04 06:15:00
1:35 AM,50.0,44.6,82,29.90,10.0,Calm,Calm,-,N/A,,Overcast,0,2013-12-04 06:35:00
1:55 AM,44.6,44.6,100,29.90,7.0,Calm,Calm,-,N/A,,Overcast,0,2013-12-04 06:55:00
2:15 AM,46.4,44.6,93,29.90,10.0,Calm,Calm,-,N/A,,Overcast,0,2013-12-04 07:15:00
2:35 AM,48.2,46.4,93,29.90,10.0,Calm,Calm,-,N/A,,Overcast,0,2013-12-04 07:35:00
2:55 AM,48.2,46.4,93,29.90,10.0,ENE,3.5,-,N/A,,Overcast,60,2013-12-04 07:55:00
3:15 AM,50.0,46.4,87,29.89,10.0,East,3.5,-,N/A,,Overcast,80,2013-12-04 08:15:00
3:35 AM,50.0,46.4,87,29.89,10.0,Calm,Calm,-,N/A,,Mostly Cloudy,0,2013-12-04 08:35:00
3:55 AM,50.0,46.4,87,29.90,10.0,Calm,Calm,-,N/A,,Overcast,0,2013-12-04 08:55:00
4:15 AM,50.0,46.4,87,29.90,10.0,NE,3.5,-,N/A,,Overcast,50,2013-12-04 09:15:00
4:35 AM,50.0,46.4,87,29.91,10.0,Calm,Calm,-,N/A,,Mostly Cloudy,0,2013-12-04 09:35:00
4:55 AM,46.4,44.6,93,29.91,10.0,NE,3.5,-,N/A,,Mostly Cloudy,40,2013-12-04 09:55:00
5:15 AM,51.8,46.4,82,29.92,10.0,East,3.5,-,N/A,,Overcast,90,2013-12-04 10:15:00
5:35 AM,50.0,46.4,87,29.92,10.0,ENE,3.5,-,N/A,,Overcast,60,2013-12-04 10:35:00
5:55 AM,46.4,44.6,93,29.92,7.0,East,3.5,-,N/A,,Overcast,90,2013-12-04 10:55:00
6:15 AM,50.0,46.4,87,29.93,10.0,SSE,3.5,-,N/A,,Overcast,160,2013-12-04 11:15:00
6:35 AM,50.0,46.4,87,29.93,10.0,East,3.5,-,N/A,,Overcast,80,2013-12-04 11:35:00
6:55 AM,50.0,46.4,87,29.93,10.0,ENE,3.5,-,N/A,,Overcast,60,2013-12-04 11:55:00
7:15 AM,50.0,46.4,87,29.93,10.0,East,3.5,-,N/A,,Mostly Cloudy,90,2013-12-04 12:15:00
7:35 AM,50.0,46.4,87,29.93,10.0,East,4.6,-,N/A,,Overcast,100,2013-12-04 12:35:00
7:55 AM,51.8,46.4,82,29.94,10.0,East,5.8,-,N/A,,Overcast,100,2013-12-04 12:55:00
8:15 AM,51.8,46.4,82,29.94,10.0,East,4.6,-,N/A,,Overcast,80,2013-12-04 13:15:00
8:35 AM,51.8,46.4,82,29.95,10.0,East,3.5,-,N/A,,Overcast,90,2013-12-04 13:35:00
8:55 AM,51.8,46.4,82,29.96,10.0,East,3.5,-,N/A,,Overcast,80,2013-12-04 13:55:00
9:15 AM,53.6,48.2,82,29.96,10.0,East,6.9,-,N/A,,Overcast,100,2013-12-04 14:15:00
9:35 AM,53.6,48.2,82,29.97,10.0,East,6.9,-,N/A,,Overcast,90,2013-12-04 14:35:00
9:55 AM,53.6,48.2,82,29.97,10.0,East,6.9,-,N/A,,Overcast,90,2013-12-04 14:55:00
10:15 AM,59.0,48.2,67,29.97,10.0,East,8.1,-,N/A,,Overcast,90,2013-12-04 15:15:00
10:35 AM,60.8,50.0,68,29.96,10.0,East,5.8,-,N/A,,Overcast,90,2013-12-04 15:35:00
10:55 AM,60.8,48.2,63,29.96,10.0,Calm,Calm,-,N/A,,Overcast,0,2013-12-04 15:55:00
11:15 AM,60.8,50.0,68,29.96,10.0,East,5.8,-,N/A,,Overcast,100,2013-12-04 16:15:00
11:35 AM,62.6,50.0,63,29.96,10.0,SSE,3.5,-,N/A,,Overcast,160,2013-12-04 16:35:00
11:55 AM,60.8,50.0,68,29.94,10.0,South,3.5,-,N/A,,Overcast,180,2013-12-04 16:55:00
12:15 PM,62.6,50.0,63,29.92,10.0,SSE,4.6,-,N/A,,Overcast,160,2013-12-04 17:15:00
12:35 PM,62.6,50.0,63,29.93,10.0,SSE,4.6,-,N/A,,Overcast,160,2013-12-04 17:35:00
12:55 PM,62.6,50.0,63,29.92,10.0,Calm,Calm,-,N/A,,Overcast,0,2013-12-04 17:55:00
1:15 PM,62.6,50.0,63,29.91,10.0,Calm,Calm,-,N/A,,Overcast,0,2013-12-04 18:15:00
1:35 PM,62.6,50.0,63,29.90,10.0,Calm,Calm,-,N/A,,Overcast,0,2013-12-04 18:35:00
1:55 PM,62.6,50.0,63,29.89,10.0,North,-9999.0,-,N/A,,Overcast,0,2013-12-04 18:55:00
2:15 PM,64.4,51.8,64,29.89,10.0,South,3.5,-,N/A,,Overcast,170,2013-12-04 19:15:00
2:35 PM,64.4,51.8,64,29.89,10.0,Calm,Calm,-,N/A,,Overcast,0,2013-12-04 19:35:00
2:55 PM,64.4,51.8,64,29.89,10.0,Calm,Calm,-,N/A,,Overcast,0,2013-12-04 19:55:00
3:15 PM,64.4,51.8,64,29.90,10.0,SSE,9.2,17.3,N/A,,Overcast,160,2013-12-04 20:15:00
3:35 PM,64.4,51.8,64,29.90,10.0,South,6.9,-,N/A,,Overcast,170,2013-12-04 20:35:00
3:55 PM,64.4,51.8,64,29.90,10.0,South,5.8,-,N/A,,Overcast,170,2013-12-04 20:55:00
4:15 PM,64.4,51.8,64,29.90,10.0,Calm,Calm,-,N/A,,Overcast,0,2013-12-04 21:15:00
4:35 PM,64.4,51.8,64,29.90,10.0,Calm,Calm,-,N/A,,Overcast,0,2013-12-04 21:35:00
4:55 PM,62.6,51.8,68,29.90,10.0,South,3.5,-,N/A,,Overcast,170,2013-12-04 21:55:00
5:15 PM,62.6,51.8,68,29.90,10.0,SSE,3.5,-,N/A,,Mostly Cloudy,150,2013-12-04 22:15:00
5:35 PM,62.6,51.8,68,29.91,10.0,SSE,4.6,-,N/A,,Mostly Cloudy,160,2013-12-04 22:35:00
5:55 PM,62.6,51.8,68,29.91,10.0,Calm,Calm,-,N/A,,Scattered Clouds,0,2013-12-04 22:55:00
6:15 PM,62.6,51.8,68,29.91,10.0,Calm,Calm,-,N/A,,Mostly Cloudy,0,2013-12-04 23:15:00
6:35 PM,62.6,51.8,68,29.91,10.0,Calm,Calm,-,N/A,,Mostly Cloudy,0,2013-12-04 23:35:00
6:55 PM,62.6,51.8,68,29.92,10.0,Calm,Calm,-,N/A,,Mostly Cloudy,0,2013-12-04 23:55:00
7:15 PM,64.4,51.8,64,29.92,10.0,Calm,Calm,-,N/A,,Mostly Cloudy,0,2013-12-05 00:15:00
7:35 PM,64.4,51.8,64,29.93,10.0,WSW,6.9,-,N/A,,Mostly Cloudy,240,2013-12-05 00:35:00
7:55 PM,64.4,51.8,64,29.93,10.0,South,4.6,16.1,N/A,,Scattered Clouds,190,2013-12-05 00:55:00
8:15 PM,64.4,51.8,64,29.92,10.0,SE,4.6,-,N/A,,Mostly Cloudy,140,2013-12-05 01:15:00
8:35 PM,64.4,53.6,68,29.93,10.0,SW,5.8,16.1,N/A,,Overcast,230,2013-12-05 01:35:00
8:55 PM,64.4,53.6,68,29.94,10.0,SW,9.2,17.3,N/A,,Overcast,230,2013-12-05 01:55:00
9:15 PM,66.2,53.6,64,29.94,10.0,South,5.8,19.6,N/A,,Overcast,180,2013-12-05 02:15:00
9:35 PM,64.4,53.6,68,29.94,10.0,South,6.9,-,N/A,,Mostly Cloudy,180,2013-12-05 02:35:00
9:55 PM,64.4,53.6,68,29.94,10.0,SW,6.9,-,N/A,,Mostly Cloudy,230,2013-12-05 02:55:00
10:15 PM,66.2,53.6,64,29.95,10.0,WSW,6.9,-,N/A,,Overcast,250,2013-12-05 03:15:00
10:35 PM,66.2,53.6,64,29.96,10.0,West,5.8,24.2,N/A,,Overcast,270,2013-12-05 03:35:00
10:55 PM,66.2,53.6,64,29.96,10.0,South,6.9,-,N/A,,Overcast,190,2013-12-05 03:55:00
11:15 PM,66.2,53.6,64,29.96,10.0,West,5.8,-,N/A,,Overcast,260,2013-12-05 04:15:00
11:35 PM,66.2,53.6,64,29.96,10.0,SE,4.6,-,N/A,,Overcast,140,2013-12-05 04:35:00
11:55 PM,64.4,53.6,68,29.97,10.0,SSW,6.9,-,N/A,,Overcast,210,2013-12-05 04:55:00